Weather History for EIDW - December, 2012

Change the Weather History Date:

Monday, December 31, 2012

  Actual Average Record
Temperature  
Mean Temperature 44 °F -  
Max Temperature 51 °F 46 °F 55 °F (2011)
Min Temperature 37 °F 36 °F 19 °F (2000)
Degree Days  
Heating Degree Days 21    
Moisture  
Dew Point 42 °F    
Average Humidity 84    
Maximum Humidity 94    
Minimum Humidity 73    
Precipitation  
Precipitation 0.02 in 0.09 in - ()
Sea Level Pressure  
Sea Level Pressure 29.35 in    
Wind  
Wind Speed 21 mph ()    
Max Wind Speed 31 mph    
Max Gust Speed 46 mph    
Visibility 7.2 miles    
Events Rain    
Averages and records for this station are not official NWS values.
T = Trace of Precipitation, MM = Missing Value Source: Averaged Metar Reports

Daily Weather History Graph

Daily Weather History Graph

Search for Another Location

Airport or City:

Trip Planner

Search our weather history database for the weather conditions in past years. The results will help you decide how hot, cold, wet, or windy it might be!

Date:

Astronomy

Dec. 31, 2012 Rise Set
Actual Time 8:40 AM GMT 4:16 PM GMT
Civil Twilight 7:58 AM GMT 4:58 PM GMT
Nautical Twilight 7:13 AM GMT 5:43 PM GMT
Astronomical Twilight 6:30 AM GMT 6:26 PM GMT
Moon 8:04 PM GMT (12/31) 9:47 AM GMT (12/31)
Length of Visible Light 9h 00m
Length of Day
7h 35m
Waning Gibbous, 91% of the Moon is Illuminated
Dec 31
Waning Gibbous
Jan 5
Last Quarter
Jan 11
New
Jan 18
First Quarter
Jan 27
Full

Hourly Weather History & Observations

Time (GMT) Temp. Windchill Dew Point Humidity Pressure Visibility Wind Dir Wind Speed Gust Speed Precip Events Conditions
12:00 AM 51 °F - 45 °F 73% 29.43 in 19 mi SSW 22.4 mph - -   Partly Cloudy
12:00 AM 50.0 °F - 44.6 °F 82% 29.42 in 6.2 mi SSW 21.9 mph 38.0 mph N/A   Mostly Cloudy
12:30 AM 51.8 °F - 44.6 °F 76% 29.39 in 6.2 mi SW 26.5 mph 38.0 mph N/A   Mostly Cloudy
1:00 AM 51.8 °F - 46.4 °F 82% 29.39 in 6.2 mi SW 27.6 mph 46.0 mph N/A   Mostly Cloudy
1:30 AM 51.8 °F - 46.4 °F 82% 29.36 in 6.2 mi SW 28.8 mph 41.4 mph N/A   Mostly Cloudy
2:00 AM 51.8 °F - 46.4 °F 82% 29.33 in 6.2 mi SSW 31.1 mph 44.9 mph N/A   Mostly Cloudy
2:30 AM 51.8 °F - 46.4 °F 82% 29.33 in 6.2 mi SSW 29.9 mph 46.0 mph N/A   Mostly Cloudy
3:00 AM 50.0 °F - 46.4 °F 87% 29.30 in 6.2 mi SSW 28.8 mph - N/A Rain Light Rain
3:30 AM 51.8 °F - 46.4 °F 82% 29.30 in 6.2 mi SSW 26.5 mph - N/A Rain Light Rain
4:00 AM 51.8 °F - 46.4 °F 82% 29.27 in 6.2 mi SSW 26.5 mph - N/A Rain Light Rain
4:30 AM 51.8 °F - 48.2 °F 88% 29.27 in 6.2 mi SSW 29.9 mph - N/A Rain Light Rain
5:00 AM 50.0 °F - 48.2 °F 94% 29.27 in 6.2 mi SW 25.3 mph - N/A Rain Light Rain
5:30 AM 50.0 °F - 46.4 °F 87% 29.24 in 6.2 mi SW 23.0 mph 35.7 mph N/A   Mostly Cloudy
6:00 AM 51 °F - 47 °F 81% 29.25 in 19 mi SW 24.6 mph - - Rain Light Rain
6:00 AM 50.0 °F - 46.4 °F 87% 29.24 in 6.2 mi SW 23.0 mph 36.8 mph N/A   Mostly Cloudy
6:30 AM 51.8 °F - 46.4 °F 82% 29.24 in 6.2 mi SW 25.3 mph - N/A   Mostly Cloudy
7:00 AM 51.8 °F - 44.6 °F 76% 29.24 in 6.2 mi SW 26.5 mph - N/A   Mostly Cloudy
7:30 AM 50.0 °F - 44.6 °F 82% 29.24 in 6.2 mi SW 24.2 mph - N/A   Mostly Cloudy
8:00 AM 50.0 °F - 44.6 °F 82% 29.24 in 6.2 mi WSW 25.3 mph - N/A   Mostly Cloudy
8:30 AM 50.0 °F - 44.6 °F 82% 29.24 in 6.2 mi WSW 26.5 mph - N/A   Mostly Cloudy
9:00 AM 48.2 °F - 44.6 °F 87% 29.24 in 6.2 mi WSW 31.1 mph 42.6 mph N/A   Mostly Cloudy
9:30 AM 48.2 °F - 44.6 °F 87% 29.24 in 6.2 mi WSW 27.6 mph - N/A   Mostly Cloudy
10:00 AM 48.2 °F - 42.8 °F 82% 29.27 in 6.2 mi WSW 29.9 mph 41.4 mph N/A   Mostly Cloudy
10:30 AM 46.4 °F 38.3 °F 42.8 °F 87% 29.30 in 6.2 mi West 23.0 mph - N/A   Scattered Clouds
11:00 AM 46.4 °F 38.7 °F 42.8 °F 87% 29.30 in 6.2 mi WSW 20.7 mph - N/A   Scattered Clouds
11:30 AM 48.2 °F - 42.8 °F 82% 29.33 in 6.2 mi West 18.4 mph - N/A   Mostly Cloudy
12:00 PM 46 °F - 41 °F 77% 29.34 in 19 mi West 15.7 mph - -   Partly Cloudy
12:00 PM 46.4 °F 39.5 °F 41.0 °F 81% 29.33 in 6.2 mi West 17.3 mph - N/A   Scattered Clouds
12:30 PM 46.4 °F 39.2 °F 41.0 °F 81% 29.33 in 6.2 mi West 18.4 mph - N/A   Scattered Clouds
1:00 PM 46.4 °F 39.5 °F 41.0 °F 81% 29.33 in 6.2 mi West 17.3 mph - N/A   Mostly Cloudy
1:30 PM 46.4 °F 39.2 °F 41.0 °F 81% 29.33 in 6.2 mi West 18.4 mph - N/A   Mostly Cloudy
2:00 PM 46.4 °F 39.8 °F 41.0 °F 81% 29.33 in 6.2 mi WSW 16.1 mph - N/A Rain Light Rain Showers
2:30 PM 44.6 °F 37.8 °F 41.0 °F 87% 29.33 in 6.2 mi West 15.0 mph - N/A Rain Light Rain Showers
3:00 PM 44.6 °F 39.2 °F 41.0 °F 87% 29.36 in 6.2 mi West 10.4 mph - N/A   Mostly Cloudy
3:30 PM 42.8 °F 38.0 °F 41.0 °F 93% 29.36 in 6.2 mi West 8.1 mph - N/A   Mostly Cloudy
4:00 PM 42.8 °F 36.6 °F 41.0 °F 93% 29.39 in 6.2 mi West 11.5 mph - N/A   Mostly Cloudy
4:30 PM 42.8 °F 35.4 °F 41.0 °F 93% 29.39 in 6.2 mi WSW 15.0 mph - N/A   Mostly Cloudy
5:00 PM 42.8 °F 36.2 °F 39.2 °F 87% 29.39 in 6.2 mi West 12.7 mph - N/A   Scattered Clouds
5:30 PM 42.8 °F 36.2 °F 37.4 °F 81% 29.42 in 6.2 mi West 12.7 mph - N/A Rain Light Rain Showers
6:00 PM 41 °F - 37 °F 80% 29.44 in 19 mi West 13.4 mph - - Rain Light Rain Showers
6:00 PM 41.0 °F 33.9 °F 37.4 °F 87% 29.42 in 6.2 mi West 12.7 mph - N/A   Mostly Cloudy
6:30 PM 41.0 °F 34.3 °F 37.4 °F 87% 29.42 in 6.2 mi West 11.5 mph - N/A   Scattered Clouds
7:00 PM 41.0 °F 33.9 °F 35.6 °F 81% 29.44 in 6.2 mi West 12.7 mph - N/A   Partly Cloudy
7:30 PM 39.2 °F 31.2 °F 35.6 °F 87% 29.44 in 6.2 mi WSW 13.8 mph - N/A   Partly Cloudy
8:00 PM 39.2 °F 30.8 °F 35.6 °F 87% 29.44 in 6.2 mi WSW 15.0 mph - N/A   Partly Cloudy
8:30 PM 39.2 °F 30.5 °F 35.6 °F 87% 29.44 in 6.2 mi WSW 16.1 mph - N/A   Partly Cloudy
9:00 PM 39.2 °F 30.8 °F 35.6 °F 87% 29.47 in 6.2 mi WSW 15.0 mph - N/A   Scattered Clouds
9:30 PM 37.4 °F 27.8 °F 35.6 °F 93% 29.47 in 6.2 mi WSW 17.3 mph - N/A   Scattered Clouds
10:00 PM 39.2 °F 29.8 °F 35.6 °F 87% 29.47 in 6.2 mi WSW 18.4 mph - N/A   Scattered Clouds
10:30 PM 39.2 °F 30.8 °F 35.6 °F 87% 29.47 in 6.2 mi WSW 15.0 mph - N/A   Scattered Clouds
11:00 PM 37.4 °F 28.9 °F 33.8 °F 87% 29.50 in 6.2 mi WSW 13.8 mph - N/A   Scattered Clouds
11:30 PM 37.4 °F 28.2 °F 33.8 °F 87% 29.50 in 6.2 mi WSW 16.1 mph - N/A   Scattered Clouds